Voltar ao catálogo

NOAA 16 DEB

AtivoPO
NORAD 42351·DEBRIS·🇺🇸 United States

Lançado Sep 21, 2000 de Vandenberg Space Force Base

Loading…

Próximas Passagens (próximas 24 horas)

TLE

AtualizadoSource: Space-Track

Época: Sep 12, 2026, 08:35 UTC

1 42351U 00055QT  26255.35830783  .00006599  00000-0  12269-2 0  9993
2 42351  98.7032  38.7674 0028407  33.6125 326.6871 14.65242029546229

Acompanhe NOAA 16 DEB em tempo real com AllMySat

Download on the App Store